This is the latest recevied weather packets stored in our database for station/object WD7CGF. If no packets are shown the sender has not sent any weather packets the latest 10 day(s).
| Time | Temp. | Humidity | Pressure | Rain* | Wind** | Luminosity | Snow |
|---|---|---|---|---|---|---|---|
| 1787701719 | 31.67° C | 28% | 1012.8 hPa | 0 mm | - | - | - |
| 1787701113 | 31.67° C | 30% | 1012.9 hPa | 0 mm | - | - | - |
| 1787700511 | 31.67° C | 29% | 1013 hPa | 0 mm | - | - | - |
| 1787699929 | 31.67° C | 27% | 1013 hPa | 0 mm | - | - | - |
| 1787699322 | 32.22° C | 29% | 1012.9 hPa | 0 mm | - | - | - |
| 1787698714 | 32.22° C | 28% | 1013.1 hPa | 0 mm | - | - | - |
| 1787698127 | 32.22° C | 28% | 1013.1 hPa | 0 mm | - | - | - |
| 1787697520 | 32.22° C | 28% | 1013.3 hPa | 0 mm | - | - | - |
| 1787696915 | 31.67° C | 28% | 1013.4 hPa | 0 mm | - | - | - |
| 1787696312 | 32.22° C | 29% | 1013.4 hPa | 0 mm | - | - | - |
| 1787695727 | 32.22° C | 29% | 1013.6 hPa | 0 mm | - | - | - |
| 1787695118 | 32.22° C | 29% | 1013.6 hPa | 0 mm | - | - | - |
| 1787694515 | 32.22° C | 29% | 1013.6 hPa | 0 mm | - | - | - |
| 1787693928 | 31.67° C | 28% | 1013.8 hPa | 0 mm | - | - | - |
| 1787693321 | 31.67° C | 28% | 1014 hPa | 0 mm | - | - | - |
| 1787692715 | 31.67° C | 31% | 1014 hPa | 0 mm | - | - | - |
| 1787692129 | 31.11° C | 31% | 1013.9 hPa | 0 mm | - | - | - |
| 1787691526 | 31.67° C | 30% | 1014.4 hPa | 0 mm | - | - | - |
| 1787690920 | 31.11° C | 32% | 1014.4 hPa | 0 mm | - | - | - |
| 1787690312 | 31.11° C | 32% | 1014.6 hPa | 0 mm | - | - | - |
| 1787689726 | 30.56° C | 33% | 1014.7 hPa | 0 mm | - | - | - |
| 1787689119 | 30.56° C | 36% | 1014.7 hPa | 0 mm | - | - | - |
| 1787688514 | 30.56° C | 34% | 1014.7 hPa | 0 mm | - | - | - |
| 1787687931 | 30° C | 37% | 1014.9 hPa | 0 mm | - | - | - |
| 1787687323 | 30° C | 38% | 1014.9 hPa | 0 mm | - | - | - |
* Rain latest hour (hover to see other rain measurements)
** Current wind speed in m/s (hover to see current wind gust speed)